This is the latest recevied weather packets stored in our database for station/object KH2PM. If no packets are shown the sender has not sent any weather packets the latest 10 day(s).
| Time | Temp. | Humidity | Pressure | Rain* | Wind** | Luminosity | Snow |
|---|---|---|---|---|---|---|---|
| 1777715404 | 11.67° C | 94% | 1013.4 hPa | 0 mm | - | - | - |
| 1777714204 | 11.67° C | 94% | 1013.4 hPa | 0 mm | - | - | - |
| 1777712405 | 11.67° C | 94% | 1013.3 hPa | 0 mm | - | - | - |
| 1777711804 | 11.67° C | 94% | 1013.2 hPa | 0 mm | - | - | - |
| 1777709404 | 11.67° C | 94% | 1012.9 hPa | 0 mm | - | - | - |
| 1777709104 | 11.67° C | 95% | 1012.8 hPa | 0 mm | - | - | - |
| 1777708504 | 11.67° C | 94% | 1012.7 hPa | 0 mm | - | - | - |
| 1777706404 | 11.67° C | 94% | 1012.2 hPa | 0 mm | - | - | - |
| 1777705805 | 11.67° C | 94% | 1012.3 hPa | 0 mm | - | - | - |
| 1777704905 | 11.67° C | 94% | 1012.3 hPa | 0 mm | - | - | - |
| 1777703406 | 11.67° C | 94% | 1012.8 hPa | 0 mm | - | - | - |
| 1777694404 | 11.67° C | 94% | 1013.7 hPa | 0 mm | - | - | - |
| 1777690504 | 11.11° C | 93% | 1014.2 hPa | 0 mm | - | - | - |
| 1777685704 | 11.11° C | 92% | 1014 hPa | 0 mm | - | - | - |
| 1777685405 | 11.11° C | 92% | 1013.9 hPa | 0 mm | - | - | - |
| 1777683304 | 11.67° C | 91% | 1013.6 hPa | 0 mm | - | - | - |
| 1777683004 | 11.67° C | 90% | 1013.6 hPa | 0 mm | - | - | - |
| 1777681504 | 12.22° C | 89% | 1013.4 hPa | 0 mm | - | - | - |
| 1777680304 | 12.22° C | 89% | 1013.4 hPa | 0 mm | - | - | - |
| 1777676704 | 12.78° C | 87% | 1013.5 hPa | 0 mm | - | - | - |
| 1777676104 | 12.78° C | 86% | 1013.7 hPa | 0 mm | - | - | - |
| 1777675205 | 12.78° C | 87% | 1013.5 hPa | 0 mm | - | - | - |
| 1777673706 | 13.33° C | 90% | 1013.7 hPa | 0 mm | - | - | - |
| 1777666507 | 12.22° C | 87% | 1014.8 hPa | 0.51 mm | - | - | - |
| 1777663204 | 12.78° C | 88% | 1015.7 hPa | 0.51 mm | - | - | - |
* Rain latest hour (hover to see other rain measurements)
** Current wind speed in m/s (hover to see current wind gust speed)